SCP
-0 -0 -0 -0 -0 -0 -0 -0 -0 -0 0 -0 -0 -0 -0 -0 -0 -0 -0 -0 -0 -0 -0 -0 -0 0 0 0 0 0 0 0 0 0 0 0 0 0 0 0 0 0 0
-0 -0 -0 -0 -0 -0 -0 -0 -0 -0 -0 -0 -0 -0 -0 -0 -0 -0 -0 -0 -0 -0 -0 -0 -0 -0 0 0 0 0 0 0 0 0 0 0 0 0 0 0 0 0 0
-0 0 -0 -0 -0 -0 -0 -0 -0 -0 -0 -0 -0 -0 -0 -0 -0 -0 -0 -0 -0 -0 -0 -0 -0 -0 -0 0 -0 -0 0 0 -0 -0 0 0 0 0 0 0 0 0 0
0 0 0 -0 -0 -0 -0 -0 -0 -0 -0 -0 -0 -0 -0 -0 -0 -0 -0 -0 -0 -0 -0 -0 -0 -0 -0 -0 -0 -0 -0 -0 -0 -0 0 0 0 0 0 0 0 0 0
0 0 0 -0 -0 -0 -0 -0 -0 -0 -0 -0 -0 -0 -0 -0 -0 -0 -0 -0 -0 -0 -0 -0 -0 -0 0 -0 -0 -0 -0 -0 -0 -0 0 0 0 0 0 0 0 0 0
0 0 0 -0 -0 -0 0 0 -0 0 -0 -0 -0 -0 -0 -0 -0 -0 -0 -0 -0 0 0 0 0 0 0 0 0 -0 -0 -0 -0 0 0 0 0 0 0 0 0 0 0
0 0 0 0 -0 -0 0 -0 -0 -0 -0 -0 -0 -0 -0 -0 0 0 0 0 0 0 0 0 0 0 0 0 0 -0 -0 -0 0 0 0 0 0 -0 -0 0 0 0 0
-0 0 0 0 0 0 0 0 0 0 0 0 0 0 0 0 0 0 0 0 0 0 0 0 0 0 0 0 0 -0 -0 0 0 0 0 0 -0 -0 -0 -0 -0 -0 0
0 0 0 0 0 0 0 0 0 0 0 0 0 0 0 0 0 0 0 0 0 0 0 0 0 0 0 0 0 0 0 0 0 0 0 0 0 0 0 0 0 0 0
0 0 0 0 0 0 0 0 0 0 0 0 0 0 0 0 0 0 0 0 0 0 0 0 0 0 0 0 0 0 0 0 0 0 0 0 0 0 0 0 0 0 0
0 0 0 0 0 0 0 0 0 0 0 0 0 0 0 0 0 0 0 0 0 0 0 0 0 0 0 0 0 0 0 0 0 0 0 0 0 0 0 0 0 0 0
0 0 0 0 0 0 0 0 0 0 0 0 0 0 0 0 0 0 0 0 0 0 0 0 0 0 0 0 0 0 0 0 0 0 0 0 0 0 0 0 0 0 0
0 0 0 0 0 0 0 0 0 0 0 0 0 0 0 0 0 0 0 0 0 0 0 0 0 0 0 0 0 0 0 0 0 0 0 0 0 0 0 0 0 0 0
0 0 0 0 0 0 0 0 0 0 0 0 0 0 0 0 0 0 0 0 0 0 0 0 0 0 0 0 0 0 0 0 0 0 0 0 0 0 0 0 0 0 0
0 0 0 0 0 0 0 0 0 0 0 0 0 0 0 0 0 0 0 0 0 0 0 0 0 0 0 0 0 0 0 0 0 0 0 0 0 0 0 0 0 0 0
0 0 0 0 0 0 0 0 0 0 0 0 0 0 0 0 0 0 0 0 0 0 0 0 0 0 0 0 0 0 0 0 0 0 0 0 0 0 0 0 0 0 0
0 0 0 0 0 0 0 0 0 0 0 0 0 0 0 0 0 0 0 0 0 0 0 0 0 0 0 0 0 0 0 0 0 0 0 0 0 0 0 0 0 0 0
0 0 0 0 0 0 0 0 0 0 0 0 0 0 0 0 0 0 0 0 0 0 0 0 0 0 0 0 0 0 0 0 0 0 0 0 0 0 0 0 0 0 0
0 0 0 0 0 0 0 0 0 0 0 0 0 0 0 0 0 0 0 0 0 0 0 0 0 0 0 0 0 0 0 0 0 0 0 0 0 0 0 0 0 0 0
0 0 0 0 0 0 0 0 0 0 0 0 0 0 0 0 0 0 0 0 0 0 0 0 0 0 0 0 0 0 0 0 0 0 0 0 0 0 0 0 0 0 0
0 0 0 0 0 0 0 0 0 0 0 0 0 0 0 0 0 0 0 0 0 0 0 0 0 0 0 0 0 0 0 0 0 0 0 0 0 0 0 0 0 0 0
0 0 0 0 0 0 0 0 0 0 0 0 0 0 0 0 0 0 0 0 0 0 0 0 0 0 0 0 0 0 0 0 0 0 0 0 0 0 0 0 0 0 0
0 0 0 0 0 0 0 0 0 0 0 0 0 0 0 0 0 0 0 0 0 0 0 0 0 0 0 0 0 0 0 0 0 0 0 0 0 0 0 0 0 0 0
0 0 0 0 0 0 0 0 0 0 0 0 0 0 0 0 0 0 0 0 0 0 0 0 0 0 0 0 0 0 0 0 0 0 0 0 0 0 0 0 0 0 0
0 0 0 0 0 0 0 0 0 0 0 0 0 0 0 0 0 0 0 0 0 0 0 0 0 0 0 0 0 0 0 0 0 0 0 0 0 0 0 0 0 0 0
0 0 0 0 0 0 0 0 0 0 0 0 0 0 0 0 0 0 0 0 0 0 0 0 0 0 0 0 0 0 0 0 0 0 0 0 0 -0 0 0 0 0 -0
Wind_Speed_500mb
43 36 31 27 30 31 29 27 23 21 20 19 17 16 14 13 13 13 12 10 8 7 9 9 9 7 5 4 4 4 5 6 7 6 5 5 5 5 5 10 12 9 8
33 39 33 30 30 33 33 29 25 23 20 20 21 20 20 18 17 14 13 13 10 9 4 9 9 7 7 7 6 6 5 4 2 2 2 3 6 5 7 11 10 9 9
33 35 32 32 27 28 31 30 27 25 23 23 23 23 20 20 19 18 16 15 15 15 15 14 10 9 10 11 12 10 8 6 5 5 4 4 2 4 2 6 8 13 11
27 34 33 30 32 32 32 33 31 28 26 25 28 25 23 23 22 18 17 16 16 17 18 17 15 14 14 14 14 13 12 10 8 7 7 8 9 7 7 10 13 15 14
29 33 34 33 36 35 32 30 32 33 28 27 27 26 24 22 19 19 19 18 20 20 21 20 20 19 21 21 21 20 19 16 13 11 13 12 12 11 5 14 13 13 12
33 38 37 36 37 35 35 34 34 32 34 32 26 25 22 20 18 15 14 15 17 17 18 18 18 19 21 22 24 22 23 23 21 19 19 17 15 14 12 11 13 14 12
36 42 41 40 38 37 37 35 32 34 30 23 22 21 18 16 15 15 13 12 11 11 9 8 8 9 10 12 14 17 21 22 22 25 26 21 19 17 12 11 16 15 15
35 42 43 43 40 38 37 34 33 32 25 23 24 22 20 18 15 12 9 7 6 4 4 5 5 7 7 8 9 9 11 14 20 23 26 27 26 24 23 17 14 13 15
39 45 47 46 44 41 39 36 35 30 27 25 24 22 20 18 17 16 14 12 8 5 4 5 7 8 10 10 10 11 10 10 13 17 21 25 28 30 31 32 28 22 18
42 48 50 49 48 46 44 41 37 34 32 30 27 25 22 20 18 16 13 10 7 5 4 6 8 10 12 13 14 14 14 13 13 15 18 21 26 31 32 35 36 35 33
49 52 55 56 53 50 49 46 43 40 37 35 33 31 28 25 22 19 15 10 9 8 8 9 10 11 13 16 17 18 18 18 17 18 19 19 22 27 31 32 35 39 39
53 54 58 61 60 57 56 53 49 46 44 41 39 38 35 31 27 23 19 15 13 13 14 16 16 16 16 18 20 20 21 23 22 22 23 23 22 22 23 25 30 35 37
53 58 58 61 63 64 62 59 55 52 49 46 44 42 40 37 32 27 23 19 18 18 19 18 19 20 20 20 22 25 26 24 24 25 26 27 25 25 26 25 25 27 29
60 61 62 62 65 66 66 65 61 59 55 53 51 48 45 40 37 33 28 23 21 19 20 22 20 20 24 27 28 29 29 29 26 26 27 27 28 27 27 28 26 27 28
67 64 65 66 68 68 70 69 67 64 60 56 56 54 50 47 43 37 32 27 24 25 25 25 25 25 24 24 26 28 28 27 27 26 27 28 28 28 27 26 28 28 27
71 71 70 71 71 72 73 73 73 69 64 63 62 58 55 51 47 40 36 32 30 30 29 27 27 27 27 29 29 28 28 28 28 28 27 27 27 28 28 28 28 29 29
76 74 76 76 76 77 77 76 76 73 70 70 67 64 60 56 50 46 41 37 34 32 30 30 29 28 29 30 29 29 29 29 28 27 28 23 21 22 23 23 25 24 20
82 81 78 80 83 82 82 81 79 78 76 74 71 69 66 61 56 51 48 45 41 37 35 34 33 32 32 32 30 30 29 30 29 24 21 20 17 12 11 9 9 7 8
83 82 81 84 84 86 87 86 82 79 80 78 76 73 69 64 61 58 54 49 45 43 39 36 33 32 34 34 33 31 31 31 25 22 16 6 2 7 11 12 13 12 13
86 81 81 84 87 87 92 89 85 82 82 81 80 78 73 70 66 63 59 55 51 47 42 39 37 36 36 36 35 31 30 29 22 16 13 6 17 10 13 13 15 17 16
83 82 81 86 89 95 98 96 94 94 89 88 86 83 80 75 71 68 64 61 57 51 46 43 40 38 37 36 34 30 27 16 13 18 11 14 9 12 8 13 17 18 24
84 89 86 89 95 98 100 94 98 95 93 88 88 86 85 81 77 74 71 67 62 56 52 48 43 39 37 33 29 30 10 19 16 22 27 22 5 19 21 23 28 33 37
73 73 72 79 88 95 98 98 99 96 93 94 94 92 91 86 81 77 73 69 64 60 57 52 47 42 36 31 27 19 10 7 11 28 9 27 15 25 27 18 21 23 31
67 64 68 73 81 88 98 101 101 101 98 98 96 90 92 89 84 80 76 72 69 66 64 57 51 45 39 33 29 26 25 27 12 14 17 23 33 36 26 26 30 28 29
53 58 55 68 78 84 96 101 101 101 99 92 90 94 93 89 86 83 80 76 73 70 64 60 55 48 40 34 31 30 29 29 31 27 35 29 46 38 34 39 34 39 36
49 59 60 63 69 76 86 96 100 102 99 92 94 93 92 91 90 89 85 82 77 73 69 64 57 51 44 39 37 35 33 31 30 30 37 52 55 50 43 41 47 45 44
Wind_Direction_500mb
188 188 195 187 189 188 192 193 194 189 188 188 194 195 193 191 199 198 197 196 210 201 216 225 235 245 260 274 283 325 355 15 14 10 9 28 25 27 23 31 27 33 41
191 190 195 190 193 194 194 199 200 200 202 200 200 204 213 208 206 211 211 206 200 158 170 230 239 243 236 240 249 253 252 251 268 304 324 340 352 5 21 15 16 19 9
186 192 193 195 184 192 198 201 193 195 200 200 207 216 212 206 201 205 210 216 218 224 232 243 242 241 241 237 238 240 245 238 231 237 226 225 255 18 53 351 352 354 345
193 193 195 191 180 183 180 181 184 188 192 199 214 212 205 208 215 217 221 227 234 243 249 257 264 263 259 261 263 258 255 259 254 237 232 230 221 174 272 282 307 327 326
198 200 197 194 195 198 200 204 201 204 198 200 217 215 225 235 236 236 238 238 244 253 265 274 279 279 274 270 267 264 264 262 258 250 249 239 245 246 269 285 288 303 318
200 200 200 200 201 204 207 210 210 217 216 227 232 233 236 241 241 239 240 246 257 265 269 275 278 276 276 275 271 271 269 262 257 251 244 241 241 249 258 279 294 292 297
206 202 204 206 207 208 212 218 224 226 235 234 236 240 243 244 246 248 249 250 253 258 272 281 290 294 293 292 288 280 273 269 257 250 245 240 234 236 255 281 289 294 287
213 209 207 210 210 213 219 223 222 229 227 224 222 220 219 224 229 226 223 221 230 263 293 310 308 311 310 302 300 289 278 272 266 255 249 243 238 230 230 234 257 286 290
213 214 215 215 214 216 219 219 222 226 230 228 226 222 213 203 196 195 195 196 202 216 268 299 312 317 321 321 318 312 301 288 275 267 258 249 242 242 239 247 250 259 267
218 217 220 221 220 220 218 218 222 225 224 224 224 221 212 204 200 203 205 204 211 227 254 286 308 316 320 322 323 322 316 307 293 280 269 260 249 245 245 247 256 261 265
220 220 221 224 225 223 221 220 220 221 221 222 220 216 215 216 218 219 220 226 242 259 277 292 304 311 318 323 324 321 314 306 297 287 279 268 259 256 254 254 259 266 269
229 225 224 224 225 225 224 223 222 222 222 220 217 215 214 215 217 218 222 232 249 270 287 296 303 313 321 325 326 324 318 310 300 291 284 276 270 267 263 257 257 264 271
245 233 232 229 226 227 227 228 227 225 225 223 219 217 218 218 216 216 221 235 250 266 275 281 294 303 309 315 319 319 318 312 302 293 283 279 275 271 270 265 257 254 260
248 243 238 236 232 230 228 230 230 229 227 224 223 224 224 222 220 221 226 239 256 270 283 290 289 291 300 310 316 316 316 313 305 293 284 278 275 273 273 272 270 266 262
248 245 241 238 238 236 233 231 229 228 228 226 225 225 223 223 226 228 233 241 254 267 274 273 278 287 295 300 306 311 313 310 305 296 286 282 277 273 271 274 273 272 276
249 246 244 242 241 238 237 234 234 230 227 225 225 227 226 226 227 230 235 239 245 252 260 270 277 286 294 302 310 315 315 313 303 294 287 281 278 273 269 268 274 275 277
257 252 247 244 242 241 240 237 235 233 228 227 227 226 226 227 229 230 232 238 246 255 260 267 273 280 288 297 306 311 316 312 303 293 289 284 284 279 274 272 271 275 280
256 253 250 246 244 241 241 239 235 233 231 230 229 228 228 227 228 230 233 236 242 248 255 261 268 278 288 294 300 307 316 316 307 294 280 276 270 280 293 293 259 267 280
260 255 250 246 245 244 240 239 237 235 233 232 231 230 230 229 229 230 231 234 239 245 249 255 263 274 284 292 299 306 311 315 307 289 277 235 255 294 290 277 273 283 305
261 257 254 249 244 242 239 236 234 234 234 233 232 232 231 230 230 231 232 234 238 243 249 256 263 272 282 290 297 305 311 313 296 261 213 258 309 304 294 281 277 284 290
262 255 252 251 244 238 235 232 230 231 231 231 230 231 231 231 231 231 233 235 238 241 245 250 257 267 276 284 293 300 308 297 282 219 205 321 284 305 319 299 291 287 298
262 258 260 251 245 240 236 235 233 232 231 234 232 230 230 230 231 232 233 235 236 238 243 247 253 262 271 281 291 304 284 296 250 222 276 287 273 334 317 311 304 304 304
266 260 258 254 246 240 236 230 231 231 233 232 231 229 229 230 231 233 234 235 236 238 241 245 250 257 266 276 283 283 288 227 250 283 247 279 265 311 313 316 315 313 309
276 271 261 251 245 238 234 231 230 233 232 236 236 234 231 230 231 233 234 236 237 239 240 242 245 251 259 268 275 273 270 273 288 280 262 253 289 308 311 317 319 321 321
274 262 254 249 248 238 233 230 229 230 234 239 238 235 234 232 232 234 235 236 237 239 240 241 244 249 255 260 263 266 268 274 280 279 291 281 299 307 319 325 332 329 328
273 258 248 241 239 238 234 231 231 232 232 232 235 236 235 232 233 234 234 235 237 238 240 242 244 246 251 257 264 266 266 266 270 274 285 299 308 314 321 325 328 331 329
Wind_Speed_850mb
43 36 31 27 30 31 29 27 23 21 20 19 17 16 14 13 13 13 12 10 8 7 9 9 9 7 5 4 4 4 5 6 7 6 5 5 5 5 5 10 12 9 8
33 39 33 30 30 33 33 29 25 23 20 20 21 20 20 18 17 14 13 13 10 9 4 9 9 7 7 7 6 6 5 4 2 2 2 3 6 5 7 11 10 9 9
33 35 32 32 27 28 31 30 27 25 23 23 23 23 20 20 19 18 16 15 15 15 15 14 10 9 10 11 12 10 8 6 5 5 4 4 2 4 2 6 8 13 11
27 34 33 30 32 32 32 33 31 28 26 25 28 25 23 23 22 18 17 16 16 17 18 17 15 14 14 14 14 13 12 10 8 7 7 8 9 7 7 10 13 15 14
29 33 34 33 36 35 32 30 32 33 28 27 27 26 24 22 19 19 19 18 20 20 21 20 20 19 21 21 21 20 19 16 13 11 13 12 12 11 5 14 13 13 12
33 38 37 36 37 35 35 34 34 32 34 32 26 25 22 20 18 15 14 15 17 17 18 18 18 19 21 22 24 22 23 23 21 19 19 17 15 14 12 11 13 14 12
36 42 41 40 38 37 37 35 32 34 30 23 22 21 18 16 15 15 13 12 11 11 9 8 8 9 10 12 14 17 21 22 22 25 26 21 19 17 12 11 16 15 15
35 42 43 43 40 38 37 34 33 32 25 23 24 22 20 18 15 12 9 7 6 4 4 5 5 7 7 8 9 9 11 14 20 23 26 27 26 24 23 17 14 13 15
39 45 47 46 44 41 39 36 35 30 27 25 24 22 20 18 17 16 14 12 8 5 4 5 7 8 10 10 10 11 10 10 13 17 21 25 28 30 31 32 28 22 18
42 48 50 49 48 46 44 41 37 34 32 30 27 25 22 20 18 16 13 10 7 5 4 6 8 10 12 13 14 14 14 13 13 15 18 21 26 31 32 35 36 35 33
49 52 55 56 53 50 49 46 43 40 37 35 33 31 28 25 22 19 15 10 9 8 8 9 10 11 13 16 17 18 18 18 17 18 19 19 22 27 31 32 35 39 39
53 54 58 61 60 57 56 53 49 46 44 41 39 38 35 31 27 23 19 15 13 13 14 16 16 16 16 18 20 20 21 23 22 22 23 23 22 22 23 25 30 35 37
53 58 58 61 63 64 62 59 55 52 49 46 44 42 40 37 32 27 23 19 18 18 19 18 19 20 20 20 22 25 26 24 24 25 26 27 25 25 26 25 25 27 29
60 61 62 62 65 66 66 65 61 59 55 53 51 48 45 40 37 33 28 23 21 19 20 22 20 20 24 27 28 29 29 29 26 26 27 27 28 27 27 28 26 27 28
67 64 65 66 68 68 70 69 67 64 60 56 56 54 50 47 43 37 32 27 24 25 25 25 25 25 24 24 26 28 28 27 27 26 27 28 28 28 27 26 28 28 27
71 71 70 71 71 72 73 73 73 69 64 63 62 58 55 51 47 40 36 32 30 30 29 27 27 27 27 29 29 28 28 28 28 28 27 27 27 28 28 28 28 29 29
76 74 76 76 76 77 77 76 76 73 70 70 67 64 60 56 50 46 41 37 34 32 30 30 29 28 29 30 29 29 29 29 28 27 28 23 21 22 23 23 25 24 20
82 81 78 80 83 82 82 81 79 78 76 74 71 69 66 61 56 51 48 45 41 37 35 34 33 32 32 32 30 30 29 30 29 24 21 20 17 12 11 9 9 7 8
83 82 81 84 84 86 87 86 82 79 80 78 76 73 69 64 61 58 54 49 45 43 39 36 33 32 34 34 33 31 31 31 25 22 16 6 2 7 11 12 13 12 13
86 81 81 84 87 87 92 89 85 82 82 81 80 78 73 70 66 63 59 55 51 47 42 39 37 36 36 36 35 31 30 29 22 16 13 6 17 10 13 13 15 17 16
83 82 81 86 89 95 98 96 94 94 89 88 86 83 80 75 71 68 64 61 57 51 46 43 40 38 37 36 34 30 27 16 13 18 11 14 9 12 8 13 17 18 24
84 89 86 89 95 98 100 94 98 95 93 88 88 86 85 81 77 74 71 67 62 56 52 48 43 39 37 33 29 30 10 19 16 22 27 22 5 19 21 23 28 33 37
73 73 72 79 88 95 98 98 99 96 93 94 94 92 91 86 81 77 73 69 64 60 57 52 47 42 36 31 27 19 10 7 11 28 9 27 15 25 27 18 21 23 31
67 64 68 73 81 88 98 101 101 101 98 98 96 90 92 89 84 80 76 72 69 66 64 57 51 45 39 33 29 26 25 27 12 14 17 23 33 36 26 26 30 28 29
53 58 55 68 78 84 96 101 101 101 99 92 90 94 93 89 86 83 80 76 73 70 64 60 55 48 40 34 31 30 29 29 31 27 35 29 46 38 34 39 34 39 36
49 59 60 63 69 76 86 96 100 102 99 92 94 93 92 91 90 89 85 82 77 73 69 64 57 51 44 39 37 35 33 31 30 30 37 52 55 50 43 41 47 45 44
Wind_Direction_850mb
188 188 195 187 189 188 192 193 194 189 188 188 194 195 193 191 199 198 197 196 210 201 216 225 235 245 260 274 283 325 355 15 14 10 9 28 25 27 23 31 27 33 41
191 190 195 190 193 194 194 199 200 200 202 200 200 204 213 208 206 211 211 206 200 158 170 230 239 243 236 240 249 253 252 251 268 304 324 340 352 5 21 15 16 19 9
186 192 193 195 184 192 198 201 193 195 200 200 207 216 212 206 201 205 210 216 218 224 232 243 242 241 241 237 238 240 245 238 231 237 226 225 255 18 53 351 352 354 345
193 193 195 191 180 183 180 181 184 188 192 199 214 212 205 208 215 217 221 227 234 243 249 257 264 263 259 261 263 258 255 259 254 237 232 230 221 174 272 282 307 327 326
198 200 197 194 195 198 200 204 201 204 198 200 217 215 225 235 236 236 238 238 244 253 265 274 279 279 274 270 267 264 264 262 258 250 249 239 245 246 269 285 288 303 318
200 200 200 200 201 204 207 210 210 217 216 227 232 233 236 241 241 239 240 246 257 265 269 275 278 276 276 275 271 271 269 262 257 251 244 241 241 249 258 279 294 292 297
206 202 204 206 207 208 212 218 224 226 235 234 236 240 243 244 246 248 249 250 253 258 272 281 290 294 293 292 288 280 273 269 257 250 245 240 234 236 255 281 289 294 287
213 209 207 210 210 213 219 223 222 229 227 224 222 220 219 224 229 226 223 221 230 263 293 310 308 311 310 302 300 289 278 272 266 255 249 243 238 230 230 234 257 286 290
213 214 215 215 214 216 219 219 222 226 230 228 226 222 213 203 196 195 195 196 202 216 268 299 312 317 321 321 318 312 301 288 275 267 258 249 242 242 239 247 250 259 267
218 217 220 221 220 220 218 218 222 225 224 224 224 221 212 204 200 203 205 204 211 227 254 286 308 316 320 322 323 322 316 307 293 280 269 260 249 245 245 247 256 261 265
220 220 221 224 225 223 221 220 220 221 221 222 220 216 215 216 218 219 220 226 242 259 277 292 304 311 318 323 324 321 314 306 297 287 279 268 259 256 254 254 259 266 269
229 225 224 224 225 225 224 223 222 222 222 220 217 215 214 215 217 218 222 232 249 270 287 296 303 313 321 325 326 324 318 310 300 291 284 276 270 267 263 257 257 264 271
245 233 232 229 226 227 227 228 227 225 225 223 219 217 218 218 216 216 221 235 250 266 275 281 294 303 309 315 319 319 318 312 302 293 283 279 275 271 270 265 257 254 260
248 243 238 236 232 230 228 230 230 229 227 224 223 224 224 222 220 221 226 239 256 270 283 290 289 291 300 310 316 316 316 313 305 293 284 278 275 273 273 272 270 266 262
248 245 241 238 238 236 233 231 229 228 228 226 225 225 223 223 226 228 233 241 254 267 274 273 278 287 295 300 306 311 313 310 305 296 286 282 277 273 271 274 273 272 276
249 246 244 242 241 238 237 234 234 230 227 225 225 227 226 226 227 230 235 239 245 252 260 270 277 286 294 302 310 315 315 313 303 294 287 281 278 273 269 268 274 275 277
257 252 247 244 242 241 240 237 235 233 228 227 227 226 226 227 229 230 232 238 246 255 260 267 273 280 288 297 306 311 316 312 303 293 289 284 284 279 274 272 271 275 280
256 253 250 246 244 241 241 239 235 233 231 230 229 228 228 227 228 230 233 236 242 248 255 261 268 278 288 294 300 307 316 316 307 294 280 276 270 280 293 293 259 267 280
260 255 250 246 245 244 240 239 237 235 233 232 231 230 230 229 229 230 231 234 239 245 249 255 263 274 284 292 299 306 311 315 307 289 277 235 255 294 290 277 273 283 305
261 257 254 249 244 242 239 236 234 234 234 233 232 232 231 230 230 231 232 234 238 243 249 256 263 272 282 290 297 305 311 313 296 261 213 258 309 304 294 281 277 284 290
262 255 252 251 244 238 235 232 230 231 231 231 230 231 231 231 231 231 233 235 238 241 245 250 257 267 276 284 293 300 308 297 282 219 205 321 284 305 319 299 291 287 298
262 258 260 251 245 240 236 235 233 232 231 234 232 230 230 230 231 232 233 235 236 238 243 247 253 262 271 281 291 304 284 296 250 222 276 287 273 334 317 311 304 304 304
266 260 258 254 246 240 236 230 231 231 233 232 231 229 229 230 231 233 234 235 236 238 241 245 250 257 266 276 283 283 288 227 250 283 247 279 265 311 313 316 315 313 309
276 271 261 251 245 238 234 231 230 233 232 236 236 234 231 230 231 233 234 236 237 239 240 242 245 251 259 268 275 273 270 273 288 280 262 253 289 308 311 317 319 321 321
274 262 254 249 248 238 233 230 229 230 234 239 238 235 234 232 232 234 235 236 237 239 240 241 244 249 255 260 263 266 268 274 280 279 291 281 299 307 319 325 332 329 328
273 258 248 241 239 238 234 231 231 232 232 232 235 236 235 232 233 234 234 235 237 238 240 242 244 246 251 257 264 266 266 266 270 274 285 299 308 314 321 325 328 331 329